Location: Arleux
(50.3632°N, 2.8721°E)
Time: 05:42:30
(UTC+00:00)

Cosmos 2227 Rocket - Pass Details

Date: 15 December 2019
Orbit: 840 x 844 km, 71.0° (Epoch: 18 January)

Event Time Altitude Azimuth Distance (km) Brightness Sun altitude
Exits shadow 05:57:41 10° 336° (NNW) 2,476 4.2 -15.5°
Reaches altitude 10° 05:57:41 10° 336° (NNW) 2,475 4.2 -15.5°
Maximum altitude 05:58:28 10° 344° (NNW) 2,457 4.3 -15.4°
Drops below altitude 10° 05:59:14 10° 352° (N) 2,475 4.4 -15.3°
Sets 06:04:36 0° 34° (NE) 3,411 5.6 -14.5°
